CW9825 Weather Reports


Display with metric or nautical units.
time (UTC)temp
F
wind
direction
speed
MPH
gust
MPH
rain 1hr
in
rain 24hr
in
rain mn
in
humidity
%
barometer
mb
20180818160005 72 168 3.0 9.0 0.00 0.00 0.00 73 1016.7
20180818155508 72 170 6.0 9.0 0.00 0.00 0.00 73 1016.7
20180818155006 72 169 4.0 7.0 0.00 0.00 0.00 73 1016.8
20180818154502 71 178 2.0 7.0 0.00 0.00 0.00 74 1016.9
20180818154001 71 145 3.0 8.0 0.00 0.00 0.00 75 1016.9
20180818153559 71 190 4.0 10.0 0.00 0.00 0.00 75 1016.9
20180818153059 70 163 4.0 10.0 0.00 0.00 0.00 75 1017.1
20180818152558 70 133 4.0 10.0 0.00 0.00 0.00 76 1017.1
20180818152057 70 145 3.0 7.0 0.00 0.00 0.00 76 1017.2
20180818151600 69 195 3.0 7.0 0.00 0.00 0.00 77 1017.1
20180818151100 69 161 1.0 6.0 0.00 0.00 0.00 78 1017.2
20180818150557 69 190 2.0 6.0 0.00 0.00 0.00 77 1017.2
20180818150111 68 174 2.0 6.0 0.00 0.00 0.00 78 1017.4
20180818145551 68 231 2.0 7.0 0.00 0.00 0.00 78 1017.4
20180818145054 68 139 3.0 7.0 0.00 0.00 0.00 79 1017.5
20180818144608 67 198 2.0 5.0 0.00 0.00 0.00 79 1017.6
20180818144052 67 221 2.0 5.0 0.00 0.00 0.00 80 1017.7
20180818143549 67 165 3.0 5.0 0.00 0.00 0.00 80 1017.7
20180818143147 67 171 2.0 8.0 0.00 0.00 0.00 79 1017.7
20180818142548 66 171 3.0 8.0 0.00 0.00 0.00 80 1017.7
20180818142044 66 153 3.0 6.0 0.00 0.00 0.00 81 1017.7
20180818141546 65 185 2.0 7.0 0.00 0.00 0.00 81 1017.7
20180818141044 65 202 3.0 7.0 0.00 0.00 0.00 82 1017.8
20180818140544 65 162 3.0 6.0 0.00 0.00 0.00 82 1017.8
20180818140124 64 170 1.0 6.0 0.00 0.00 0.00 82 1018.0
20180818135548 64 198 1.0 6.0 0.00 0.00 0.00 82 1017.9
20180818135044 63 173 3.0 6.0 0.00 0.00 0.00 83 1018.0
20180818134543 63 153 3.0 8.0 0.00 0.00 0.00 83 1018.0
20180818134041 63 157 3.0 8.0 0.00 0.00 0.00 84 1018.0
20180818133546 62 150 3.0 8.0 0.00 0.00 0.00 84 1018.1
20180818133104 62 146 4.0 8.0 0.00 0.00 0.00 84 1018.2
20180818132541 62 163 2.0 8.0 0.00 0.00 0.00 84 1018.1
20180818132040 62 145 4.0 8.0 0.00 0.00 0.00 84 1018.1
20180818131540 62 157 3.0 8.0 0.00 0.00 0.00 85 1018.1
20180818131043 62 148 2.0 6.0 0.00 0.00 0.00 85 1018.1
20180818130542 62 154 3.0 6.0 0.00 0.00 0.00 85 1018.0
20180818130038 61 159 3.0 7.0 0.00 0.00 0.00 86 1018.1
20180818125539 61 157 3.0 7.0 0.00 0.00 0.00 86 1018.3
20180818125040 61 153 2.0 5.0 0.00 0.00 0.00 87 1018.3
20180818124553 61 160 1.0 6.0 0.00 0.00 0.00 87 1018.2
20180818124041 61 151 3.0 6.0 0.00 0.00 0.00 87 1018.2
20180818123539 60 157 2.0 6.0 0.00 0.00 0.00 88 1018.2
20180818123037 60 141 2.0 6.0 0.00 0.00 0.00 87 1018.3
20180818122543 60 142 3.0 6.0 0.00 0.00 0.00 88 1018.2
20180818122037 60 151 2.0 6.0 0.00 0.00 0.00 88 1018.2
20180818121600 60 150 2.0 6.0 0.00 0.00 0.00 88 1018.2
20180818121036 59 165 2.0 5.0 0.00 0.00 0.00 88 1018.2
20180818120537 59 181 1.0 5.0 0.00 0.00 0.00 88 1018.2
20180818120035 60 158 2.0 5.0 0.00 0.00 0.00 88 1018.2
20180818115534 60 159 2.0 6.0 0.00 0.00 0.00 88 1018.2
20180818115035 60 146 1.0 5.0 0.00 0.00 0.00 88 1018.2
20180818114534 60 148 2.0 5.0 0.00 0.00 0.00 88 1018.2
20180818114036 60 182 2.0 4.0 0.00 0.00 0.00 88 1018.2
20180818113535 60 169 1.0 6.0 0.00 0.00 0.00 88 1018.1
20180818113038 60 178 3.0 6.0 0.00 0.00 0.00 88 1018.2
20180818112539 60 186 1.0 7.0 0.00 0.00 0.00 88 1018.1
20180818112033 60 165 0.0 5.0 0.00 0.00 0.00 88 1018.2
20180818111550 60 178 1.0 5.0 0.00 0.00 0.00 88 1018.3
20180818111035 60 169 0.0 5.0 0.00 0.00 0.00 88 1018.3
20180818110532 60 169 2.0 6.0 0.00 0.00 0.00 88 1018.3
20180818110034 61 216 2.0 7.0 0.00 0.00 0.00 88 1018.2
20180818105534 61 196 3.0 7.0 0.00 0.00 0.00 88 1018.3
20180818105033 61 182 2.0 6.0 0.00 0.00 0.00 88 1018.3
20180818104540 61 185 2.0 5.0 0.00 0.00 0.00 88 1018.2
20180818104030 61 189 1.0 6.0 0.00 0.00 0.00 88 1018.2
20180818103531 61 196 2.0 7.0 0.00 0.00 0.00 88 1018.3
20180818103033 61 161 3.0 7.0 0.00 0.00 0.00 88 1018.2
20180818102536 61 151 3.0 6.0 0.00 0.00 0.00 88 1018.2
20180818102028 60 157 2.0 5.0 0.00 0.00 0.00 88 1018.2
20180818101546 60 174 1.0 3.0 0.00 0.00 0.00 88 1018.3
20180818101032 60 174 1.0 4.0 0.00 0.00 0.00 88 1018.3
20180818100527 60 185 1.0 5.0 0.00 0.00 0.00 88 1018.4
20180818100031 61 177 2.0 5.0 0.00 0.00 0.00 88 1018.4
20180818095526 61 190 2.0 5.0 0.00 0.00 0.00 88 1018.4
20180818095027 61 162 3.0 5.0 0.00 0.00 0.00 88 1018.5
20180818094529 61 186 2.0 5.0 0.00 0.00 0.00 88 1018.5
20180818094025 61 180 1.0 3.0 0.00 0.00 0.00 88 1018.4
20180818093524 61 148 0.0 3.0 0.00 0.00 0.00 88 1018.4
20180818093024 61 148 1.0 3.0 0.00 0.00 0.00 88 1018.5
20180818092527 61 148 0.0 3.0 0.00 0.00 0.00 88 1018.5
20180818092025 61 147 1.0 3.0 0.00 0.00 0.00 88 1018.5
20180818091523 61 188 0.0 2.0 0.00 0.00 0.00 88 1018.5
20180818091029 61 184 0.0 3.0 0.00 0.00 0.00 88 1018.6
20180818090523 61 190 0.0 3.0 0.00 0.00 0.00 87 1018.6
20180818090022 61 171 0.0 2.0 0.00 0.00 0.00 87 1018.5
20180818085526 61 145 0.0 2.0 0.00 0.00 0.00 87 1018.6
20180818085024 61 145 0.0 1.0 0.00 0.00 0.00 87 1018.5
20180818084533 62 145 0.0 2.0 0.00 0.00 0.00 86 1018.6
20180818084025 62 145 0.0 3.0 0.00 0.00 0.00 86 1018.6
20180818083521 62 145 1.0 3.0 0.00 0.00 0.00 87 1018.6
20180818083050 62 144 0.0 5.0 0.00 0.00 0.00 86 1018.6
20180818082524 62 144 1.0 5.0 0.00 0.00 0.00 86 1018.5
20180818082018 62 157 2.0 5.0 0.00 0.00 0.00 87 1018.6
20180818081601 62 156 3.0 5.0 0.00 0.00 0.00 87 1018.5
20180818081023 62 155 2.0 5.0 0.00 0.00 0.00 87 1018.6
20180818080520 62 150 0.0 3.0 0.00 0.00 0.00 87 1018.6
20180818080018 62 150 1.0 5.0 0.00 0.00 0.00 87 1018.7
20180818075521 62 152 1.0 5.0 0.00 0.00 0.00 87 1018.7
20180818075018 62 144 2.0 3.0 0.00 0.00 0.00 87 1018.6
20180818074535 62 142 1.0 3.0 0.00 0.00 0.00 87 1018.7
20180818074021 63 142 1.0 3.0 0.00 0.00 0.00 87 1018.7
20180818073518 63 142 1.0 5.0 0.00 0.00 0.00 87 1018.7
20180818073028 63 148 2.0 5.0 0.00 0.00 0.00 87 1018.7
20180818072518 62 153 2.0 3.0 0.00 0.00 0.00 86 1018.7
20180818072018 62 150 0.0 2.0 0.00 0.00 0.00 83 1018.8
20180818071519 62 150 0.0 1.0 0.00 0.00 0.00 81 1018.8
20180818071018 63 150 0.0 2.0 0.00 0.00 0.00 81 1018.8
20180818070517 63 150 1.0 3.0 0.00 0.00 0.00 81 1018.8
20180818070027 64 150 1.0 3.0 0.00 0.00 0.00 81 1018.8
20180818065518 63 150 2.0 4.0 0.00 0.00 0.00 81 1018.7
20180818065012 63 169 1.0 4.0 0.00 0.00 0.00 81 1018.8
20180818064512 63 169 1.0 2.0 0.00 0.00 0.00 81 1018.9
20180818064012 63 169 0.0 2.0 0.00 0.00 0.00 82 1018.9
20180818063513 63 169 0.0 2.0 0.00 0.00 0.00 81 1019.0
20180818063013 63 169 1.0 2.0 0.00 0.00 0.00 81 1018.9
20180818062510 63 169 0.0 0.0 0.00 0.00 0.00 80 1018.9
20180818062009 63 169 0.0 1.0 0.00 0.00 0.00 80 1018.9
20180818061534 64 169 0.0 1.0 0.00 0.00 0.00 80 1018.8
20180818061011 63 169 0.0 0.0 0.00 0.00 0.00 80 1018.8
20180818060506 64 169 0.0 1.0 0.00 0.00 0.00 80 1018.8
20180818060007 64 169 0.0 1.0 0.00 0.00 0.00 80 1018.7
20180818055507 64 169 0.0 2.0 0.00 0.00 0.00 80 1018.7
20180818055006 64 169 0.0 2.0 0.00 0.00 0.00 79 1018.7
20180818054509 64 169 0.0 2.0 0.00 0.00 0.00 79 1018.7
20180818054009 64 169 0.0 2.0 0.00 0.00 0.00 78 1018.7
20180818053012 64 169 1.0 3.0 0.00 0.00 0.00 79 1018.7
20180818052502 64 149 0.0 2.0 0.00 0.00 0.00 78 1018.6
20180818052003 65 144 1.0 3.0 0.00 0.00 0.00 77 1018.5
20180818051634 66 143 1.0 3.0 0.00 0.00 0.00 77 1018.4
20180818051101 66 142 1.0 3.0 0.00 0.00 0.00 77 1018.4
20180818050558 66 142 2.0 3.0 0.00 0.00 0.00 76 1018.4
20180818050109 66 65 0.0 2.0 0.00 0.00 0.00 76 1018.4
20180818045600 65 65 0.0 2.0 0.00 0.00 0.00 78 1018.5
20180818045059 65 65 0.0 1.0 0.00 0.00 0.00 78 1018.6
20180818044558 65 65 0.0 1.0 0.00 0.00 0.00 78 1018.6
20180818044102 65 65 0.0 2.0 0.00 0.00 0.00 78 1018.7
20180818043558 65 65 1.0 2.0 0.00 0.00 0.00 78 1018.7
20180818043113 65 65 0.0 1.0 0.00 0.00 0.00 77 1018.8
20180818042556 66 65 0.0 1.0 0.00 0.00 0.00 77 1018.8
20180818042056 66 65 0.0 1.0 0.00 0.00 0.00 77 1018.8
20180818041606 66 65 0.0 1.0 0.00 0.00 0.00 77 1018.9
20180818041056 66 65 0.0 0.0 0.00 0.00 0.00 76 1018.9
20180818040558 66 65 0.0 0.0 0.00 0.00 0.00 76 1018.8
20180818040056 67 65 0.0 0.0 0.00 0.00 0.00 75 1018.9
20180818035556 67 65 0.0 0.0 0.00 0.00 0.00 75 1018.8
20180818035056 67 65 0.0 1.0 0.00 0.00 0.00 75 1018.8
20180818034556 67 65 0.0 1.0 0.00 0.00 0.00 74 1018.8
20180818034058 68 65 0.0 1.0 0.00 0.00 0.00 73 1018.8
20180818033556 67 65 0.0 0.0 0.00 0.00 0.00 74 1018.9
20180818033106 67 65 0.0 0.0 0.00 0.00 0.00 74 1018.9
20180818032558 68 65 0.0 0.0 0.00 0.00 0.00 73 1019.1
20180818032058 68 65 0.0 0.0 0.00 0.00 0.00 73 1019.1
20180818031559 68 65 0.0 0.0 0.00 0.00 0.00 72 1019.1
20180818031054 68 65 0.0 0.0 0.00 0.00 0.00 72 1019.2
20180818030554 69 65 0.0 1.0 0.00 0.00 0.00 72 1019.1
20180818030101 69 65 0.0 1.0 0.00 0.00 0.00 72 1019.1
20180818025553 69 65 0.0 0.0 0.00 0.00 0.00 72 1019.0
20180818025053 69 65 0.0 1.0 0.00 0.00 0.00 71 1019.1
20180818024602 69 65 0.0 1.0 0.00 0.00 0.00 71 1019.2
20180818024054 69 65 0.0 0.0 0.00 0.00 0.00 70 1019.2
20180818023553 69 65 0.0 0.0 0.00 0.00 0.00 70 1019.1
20180818023056 69 65 0.0 0.0 0.00 0.00 0.00 69 1019.1
20180818022554 70 65 0.0 1.0 0.00 0.00 0.00 69 1019.1
20180818022055 70 65 0.0 1.0 0.00 0.00 0.00 68 1018.9
20180818021552 70 65 0.0 1.0 0.00 0.00 0.00 68 1018.9
20180818021058 70 65 0.0 1.0 0.00 0.00 0.00 68 1018.9
20180818020553 70 65 0.0 0.0 0.00 0.00 0.00 68 1018.8
20180818020052 71 65 0.0 0.0 0.00 0.00 0.00 67 1018.8
20180818015552 71 65 0.0 0.0 0.00 0.00 0.00 67 1018.6
20180818015053 71 65 0.0 0.0 0.00 0.00 0.00 67 1018.5
20180818014619 72 65 0.0 1.0 0.00 0.00 0.00 65 1018.5
20180818014052 72 65 0.0 1.0 0.00 0.00 0.00 65 1018.6
20180818013551 72 65 0.0 0.0 0.00 0.00 0.00 64 1018.5
20180818013051 73 65 0.0 0.0 0.00 0.00 0.00 64 1018.6
20180818012553 73 65 0.0 0.0 0.00 0.00 0.00 63 1018.6
20180818012056 74 65 0.0 0.0 0.00 0.00 0.00 63 1018.6
20180818011631 74 65 0.0 0.0 0.00 0.00 0.00 63 1018.6
20180818011055 74 65 0.0 0.0 0.00 0.00 0.00 62 1018.6
20180818010551 74 65 0.0 0.0 0.00 0.00 0.00 64 1018.6
20180818010113 75 65 0.0 1.0 0.00 0.00 0.00 62 1018.6
20180818005555 75 65 0.0 1.0 0.00 0.00 0.00 62 1018.6
20180818005052 75 65 0.0 0.0 0.00 0.00 0.00 60 1018.5
20180818004555 76 65 0.0 0.0 0.00 0.00 0.00 60 1018.7
20180818004054 76 65 0.0 0.0 0.00 0.00 0.00 59 1018.6
20180818003551 77 65 0.0 0.0 0.00 0.00 0.00 58 1018.6
20180818003053 77 65 0.0 1.0 0.00 0.00 0.00 57 1018.6
20180818002554 77 65 0.0 1.0 0.00 0.00 0.00 57 1018.6
20180818002048 77 65 0.0 1.0 0.00 0.00 0.00 58 1018.6
20180818001548 77 65 0.0 1.0 0.00 0.00 0.00 57 1018.7
20180818001053 78 65 0.0 1.0 0.00 0.00 0.00 57 1018.6
20180818000551 78 65 0.0 1.0 0.00 0.00 0.00 56 1018.7
20180818000057 78 65 0.0 1.0 0.00 0.00 0.00 55 1018.7
20180817235548 78 65 0.0 1.0 0.00 0.00 0.00 56 1018.7
20180817235048 79 65 0.0 2.0 0.00 0.00 0.00 53 1018.7
20180817234548 79 65 0.0 2.0 0.00 0.00 0.00 54 1018.8
20180817234047 79 65 0.0 2.0 0.00 0.00 0.00 55 1018.8
20180817233550 79 65 0.0 2.0 0.00 0.00 0.00 53 1018.9
20180817233047 79 65 0.0 2.0 0.00 0.00 0.00 53 1018.9
20180817232551 79 65 0.0 2.0 0.00 0.00 0.00 53 1019.0
20180817232046 79 65 0.0 2.0 0.00 0.00 0.00 52 1018.9
20180817231603 79 65 0.0 2.0 0.00 0.00 0.00 53 1018.9
20180817231051 79 65 0.0 2.0 0.00 0.00 0.00 53 1019.0
20180817230548 79 65 0.0 2.0 0.00 0.00 0.00 55 1018.9
20180817230046 80 65 0.0 2.0 0.00 0.00 0.00 52 1018.8
20180817225546 80 65 0.0 3.0 0.00 0.00 0.00 51 1018.8
20180817225046 80 65 0.0 3.0 0.00 0.00 0.00 54 1018.8
20180817224546 80 60 1.0 3.0 0.00 0.00 0.00 52 1018.8
20180817224049 80 360 1.0 3.0 0.00 0.00 0.00 52 1018.8
20180817223545 80 360 0.0 3.0 0.00 0.00 0.00 54 1018.9
20180817223051 80 346 1.0 3.0 0.00 0.00 0.00 53 1018.9
20180817222547 80 45 0.0 4.0 0.00 0.00 0.00 52 1018.8
20180817222044 80 11 1.0 4.0 0.00 0.00 0.00 52 1018.8
20180817221545 80 5 0.0 5.0 0.00 0.00 0.00 52 1018.9
20180817221044 80 355 3.0 5.0 0.00 0.00 0.00 52 1018.8
20180817220543 80 47 1.0 5.0 0.00 0.00 0.00 52 1018.8
20180817220053 80 17 1.0 4.0 0.00 0.00 0.00 55 1018.8
20180817215543 80 45 1.0 3.0 0.00 0.00 0.00 52 1018.9
20180817215043 79 94 0.0 4.0 0.00 0.00 0.00 55 1018.9
20180817214548 80 71 1.0 5.0 0.00 0.00 0.00 52 1019.0
20180817214044 79 344 1.0 5.0 0.00 0.00 0.00 52 1018.9
20180817213541 80 347 2.0 6.0 0.00 0.00 0.00 52 1019.1
20180817213057 80 76 2.0 6.0 0.00 0.00 0.00 51 1019.0
20180817212543 80 5 1.0 4.0 0.00 0.00 0.00 50 1019.0
20180817212043 80 17 2.0 6.0 0.00 0.00 0.00 52 1019.0
20180817211630 80 5 3.0 6.0 0.00 0.00 0.00 50 1019.1
20180817211041 80 348 1.0 4.0 0.00 0.00 0.00 52 1019.0
20180817210541 80 77 2.0 4.0 0.00 0.00 0.00 50 1019.0
20180817210053 79 28 1.0 5.0 0.00 0.00 0.00 50 1019.1
20180817205539 80 54 3.0 5.0 0.00 0.00 0.00 52 1019.1
20180817205040 80 64 1.0 5.0 0.00 0.00 0.00 53 1019.1
20180817204542 80 46 2.0 5.0 0.00 0.00 0.00 52 1019.0
20180817204036 80 38 1.0 5.0 0.00 0.00 0.00 54 1019.1
20180817203536 79 15 1.0 5.0 0.00 0.00 0.00 53 1019.2
20180817203041 79 61 2.0 5.0 0.00 0.00 0.00 55 1019.3
20180817202536 79 38 1.0 6.0 0.00 0.00 0.00 53 1019.3
20180817202036 79 347 2.0 6.0 0.00 0.00 0.00 52 1019.2
20180817201545 79 66 2.0 6.0 0.00 0.00 0.00 52 1019.2
20180817201035 79 84 3.0 7.0 0.00 0.00 0.00 52 1019.3
20180817200536 79 94 2.0 6.0 0.00 0.00 0.00 54 1019.4
20180817200039 79 61 2.0 5.0 0.00 0.00 0.00 54 1019.6
20180817195533 79 59 2.0 6.0 0.00 0.00 0.00 54 1019.6
20180817195032 79 79 1.0 6.0 0.00 0.00 0.00 54 1019.6
20180817194558 78 64 2.0 5.0 0.00 0.00 0.00 54 1019.7
20180817194035 78 345 2.0 6.0 0.00 0.00 0.00 55 1019.7
20180817193535 78 355 2.0 6.0 0.00 0.00 0.00 55 1019.6
20180817193032 78 70 2.0 6.0 0.00 0.00 0.00 55 1019.5
20180817192531 78 65 2.0 6.0 0.00 0.00 0.00 55 1019.5
20180817192031 78 62 2.0 6.0 0.00 0.00 0.00 56 1019.6
20180817191537 78 82 2.0 6.0 0.00 0.00 0.00 57 1019.6
20180817191031 79 76 2.0 6.0 0.00 0.00 0.00 56 1019.7
20180817190530 78 78 2.0 6.0 0.00 0.00 0.00 55 1019.7
20180817190050 78 59 3.0 6.0 0.00 0.00 0.00 57 1019.8
20180817185529 78 76 3.0 6.0 0.00 0.00 0.00 56 1019.8
20180817185030 78 16 1.0 6.0 0.00 0.00 0.00 58 1019.9
20180817184528 78 28 2.0 6.0 0.00 0.00 0.00 56 1019.9
20180817184031 77 80 1.0 5.0 0.00 0.00 0.00 58 1019.9
20180817183530 77 59 1.0 5.0 0.00 0.00 0.00 57 1019.9
20180817183031 77 347 2.0 5.0 0.00 0.00 0.00 59 1019.9
20180817182525 76 24 1.0 5.0 0.00 0.00 0.00 59 1019.9
20180817182027 76 5 3.0 6.0 0.00 0.00 0.00 59 1020.0
20180817181527 76 29 3.0 7.0 0.00 0.00 0.00 60 1020.0
20180817181026 76 326 3.0 5.0 0.00 0.00 0.00 61 1020.1
20180817180524 74 13 1.0 5.0 0.00 0.00 0.00 61 1020.0
20180817180029 74 5 2.0 5.0 0.00 0.00 0.00 61 1020.2
20180817175522 74 296 1.0 5.0 0.00 0.00 0.00 62 1020.1
20180817175026 74 11 1.0 5.0 0.00 0.00 0.00 63 1020.1
20180817174531 74 305 1.0 4.0 0.00 0.00 0.00 63 1020.0
20180817174018 73 20 1.0 8.0 0.00 0.00 0.00 66 1020.1
20180817173521 73 311 2.0 8.0 0.00 0.00 0.00 65 1020.1
20180817173047 73 24 2.0 6.0 0.00 0.00 0.00 63 1020.1
20180817172518 72 27 2.0 6.0 0.00 0.00 0.00 65 1020.2
20180817172021 72 306 3.0 6.0 0.00 0.00 0.00 64 1020.3
20180817171515 72 319 1.0 5.0 0.00 0.00 0.00 65 1020.2
20180817171018 72 342 2.0 5.0 0.00 0.00 0.00 65 1020.4
20180817170514 71 30 1.0 4.0 0.00 0.00 0.00 66 1020.4
20180817170030 70 342 1.0 5.0 0.00 0.00 0.00 66 1020.3
20180817165512 70 333 1.0 5.0 0.00 0.00 0.00 67 1020.3
20180817165011 70 323 1.0 4.0 0.00 0.00 0.00 66 1020.4
20180817164510 70 275 2.0 5.0 0.00 0.00 0.00 66 1020.3
20180817164010 69 297 2.0 5.0 0.00 0.00 0.00 68 1020.3
20180817163514 69 262 2.0 5.0 0.00 0.00 0.00 67 1020.4
20180817163009 68 22 2.0 3.0 0.00 0.00 0.00 68 1020.4
20180817162514 68 300 1.0 4.0 0.00 0.00 0.00 69 1020.4
20180817162007 68 317 1.0 4.0 0.00 0.00 0.00 69 1020.4
20180817161506 68 259 2.0 4.0 0.00 0.00 0.00 69 1020.4
20180817161010 67 284 1.0 4.0 0.00 0.00 0.00 69 1020.4
20180817160504 67 17 1.0 5.0 0.00 0.00 0.00 69 1020.4